[[{"header":{"parameterUnit":"m.s-1","parameterCategory":1,"la1":30.2991,"la2":30.254,"lo1":-89.0895,"lo2":-89.0444,"dy":0.0017,"dx":0.0017,"nx":28,"ny":28,"refTime":"2023-09-06T09:00:00:Z","depth":0,"parameterNumber":2,"parameterNumberName":"U-component_of_WINDS"},"data":[0,0,0,0,0,0,0,0,0,0,0,0,0,0,0,0,0,0,0,0,0,0,0,0,0,0,0,0,0,0,0,0,0,0,0,0,0,0,0,0,0,0,0,0,0,0,0,0,0,0,0,0,0,0,0,0,0,0,-3.0187,-3.0187,0,-3.0259,-3.026,-3.0261,-3.026,-3.0259,-3.0258,-3.0257,-3.0326,-3.0329,-3.0331,0,0,0,0,0,0,0,0,0,0,0,0,0,-3.0046,-3.0049,-3.0186,-3.0187,-3.0188,-3.0259,-3.026,-3.0261,-3.026,-3.0259,-3.0258,-3.0257,-3.0325,-3.0328,-3.0332,0,0,0,0,0,0,0,0,0,0,0,0,0,-3.0112,-3.005,-3.0186,-3.0197,-3.0198,-3.0259,-3.026,-3.0261,-3.026,-3.0259,-3.0258,-3.0256,-3.0324,-3.0328,-3.0332,-3.0385,0,0,-3.0344,-3.0346,0,0,0,0,0,0,0,0,-3.0108,-3.0117,-3.0194,-3.0196,-3.0198,-3.0249,-3.0236,-3.0303,-3.0261,-3.0237,-3.0257,-3.0256,-3.0301,-3.0307,-3.0324,-3.0389,-3.0392,-3.0345,-3.0347,-3.0349,-3.035,0,0,0,0,0,0,0,-3.0104,-3.0114,-3.0215,-3.0195,-3.0198,-3.0197,-3.0205,-3.0249,-3.0276,-3.0239,-3.0239,-3.0248,-3.0302,-3.032,-3.0325,-3.0393,-3.0345,-3.0348,-3.0351,-3.0352,-3.0511,-3.0513,0,0,0,0,0,0,-3.0097,-3.011,-3.0213,-3.0217,-3.0149,-3.0201,-3.021,-3.0234,-3.0275,-3.028,-3.0249,-3.0247,-3.0313,-3.032,-3.0328,-3.0396,-3.0349,-3.0353,-3.0355,-3.0509,-3.0512,-3.0514,0,0,0,0,0,0,-3.0094,-3.0106,-3.021,-3.0164,-3.0177,-3.0205,-3.0232,-3.0236,-3.0254,-3.0283,-3.0288,-3.0262,-3.0313,-3.0322,-3.0373,-3.0398,-3.0355,-3.0358,-3.0507,-3.051,-3.0513,-3.0531,0,0,0,0,0,0,-3.009,-3.0105,-3.0125,-3.0164,-3.018,-3.0254,-3.0234,-3.0239,-3.0262,-3.0261,-3.0297,-3.0301,-3.0312,-3.0367,-3.0377,-3.0403,-3.0361,-3.0505,-3.0509,-3.0512,-3.0528,-3.0534,-3.0539,0,0,0,0,0,-3.0085,-3.0125,-3.0126,-3.0139,-3.0205,-3.0255,-3.0264,-3.0277,-3.0264,-3.0285,-3.0305,-3.03,-3.0395,-3.0372,-3.0383,-3.0411,-3.0503,-3.0508,-3.0511,-3.0525,-3.0533,-3.0539,0,0,0,0,0,0,-3.0084,-3.013,-3.0132,-3.0185,-3.0217,-3.0255,-3.028,-3.0283,-3.0317,-3.0314,-3.0328,-3.0336,-3.0388,-3.0405,-3.0379,-3.0468,-3.0447,-3.0454,-3.0454,-3.0461,-3.0466,-3.046,-3.0365,0,0,0,0,0,-3.0091,-3.0128,-3.0166,-3.021,-3.0226,-3.0251,-3.0273,-3.0282,-3.0314,-3.0326,-3.0349,-3.038,-3.0417,-3.044,-3.0475,-3.0532,-3.0541,-3.0557,-3.0563,-3.0567,-3.0571,-3.0606,-3.0615,-3.0527,-3.0527,-3.0527,0,0,-3.0102,-3.0133,-3.0155,-3.0211,-3.0236,-3.0275,-3.0262,-3.0302,-3.0331,-3.0331,-3.0382,-3.0401,-3.0436,-3.0491,-3.0517,-3.0507,-3.0599,-3.0572,-3.0575,-3.0577,-3.0611,-3.062,-3.0627,-3.0529,-3.0529,-3.0529,0,0,-3.0145,-3.0172,-3.0213,-3.0241,-3.0281,-3.0299,-3.031,-3.0349,-3.0363,-3.0415,-3.0418,-3.0453,-3.0515,-3.0542,-3.0563,-3.0626,-3.0624,-3.0637,-3.0663,-3.0698,-3.0705,-3.0711,-3.0734,-3.0742,-3.0642,-3.0642,-3.0642,0,-3.0154,-3.0214,-3.0233,-3.0276,-3.0302,-3.031,-3.0353,-3.0378,-3.0426,-3.0444,-3.0434,-3.0517,-3.0541,-3.0604,-3.062,-3.0637,-3.065,-3.0631,-3.0702,-3.0709,-3.0715,-3.0737,-3.0746,-3.0644,-3.0643,-3.0643,-3.0643,0,-3.0225,-3.0267,-3.0296,-3.0348,-3.0377,-3.0419,-3.0446,-3.0473,-3.0482,-3.0502,-3.0557,-3.0587,-3.0631,-3.0648,-3.0654,-3.0713,-3.0707,-3.07,-3.0678,-3.0724,-3.0746,-3.0754,-3.0646,-3.0645,-3.0645,-3.0644,0,0,-3.0261,-3.033,-3.034,-3.0366,-3.0416,-3.0448,-3.0493,-3.054,-3.0564,-3.06,-3.0638,-3.0695,-3.0691,-3.0716,-3.0726,-3.0756,-3.0807,-3.0746,-3.0747,-3.0756,-3.0877,-3.0881,-3.0891,-3.0808,-3.081,-3.0811,-3.0874,0,-3.0309,-3.0391,-3.0413,-3.0482,-3.0523,-3.0535,-3.0575,-3.061,-3.0631,-3.0669,-3.0692,-3.0733,-3.0724,-3.0739,-3.077,-3.0794,-3.0831,-3.079,-3.0843,-3.0845,-3.0832,-3.0902,-3.0905,-3.0963,-3.0883,-3.0884,-3.0885,0,-3.0374,-3.0417,-3.0491,-3.0541,-3.0559,-3.0594,-3.0642,-3.0678,-3.0719,-3.0733,-3.0765,-3.0775,-3.0824,-3.0804,-3.0872,-3.0844,-3.0868,-3.0884,-3.0887,-3.089,-3.0866,-3.0906,-3.0981,-3.099,-3.0898,-3.0897,-3.0896,0,-3.0395,-3.047,-3.0526,-3.0548,-3.0607,-3.0632,-3.0658,-3.0699,-3.0727,-3.0769,-3.0788,-3.0834,-3.0859,-3.0895,-3.0917,-3.09,-3.0984,-3.0965,-3.0997,-3.0996,-3.1011,-3.1009,-3.1089,-3.1029,-3.1029,-3.1029,-3.1028,0,-3.0445,-3.049,-3.0537,-3.057,-3.0623,-3.065,-3.0701,-3.0727,-3.0764,-3.0804,-3.0817,-3.0854,-3.0882,-3.0923,-3.0942,-3.0997,-3.1007,-3.102,-3.1024,-3.1018,-3.1016,-3.1031,-3.1028,-3.1031,-3.103,-3.103,-3.103,0,-3.0474,-3.0508,-3.0569,-3.0624,-3.0639,-3.0675,-3.0721,-3.0755,-3.0781,-3.0831,-3.0844,-3.0883,-3.0932,-3.096,-3.1021,-3.1034,-3.1095,-3.1097,-3.1082,-3.1083,-3.1113,-3.111,-3.1204,-3.1219,-3.115,-3.115,-3.1151,0,-3.0503,-3.0539,-3.06,-3.0629,-3.0657,-3.0703,-3.0734,-3.0765,-3.0796,-3.0851,-3.0879,-3.0931,-3.0973,-3.1052,-3.1085,-3.1133,-3.1136,-3.1167,-3.1143,-3.1137,-3.1137,-3.1134,-3.1138,-3.1169,-3.117,-3.117,-3.1171,0,-3.0551,-3.0568,-3.0614,-3.0668,-3.0706,-3.0748,-3.079,-3.0813,-3.0851,-3.0887,-3.094,-3.0974,-3.104,-3.1091,-3.1144,-3.1169,-3.1177,-3.1179,-3.1189,-3.1182,-3.1171,-3.1178,-3.1092,-3.1175,-3.1175,-3.1175,-3.1174,-3.1174,-3.0581,-3.0615,-3.0666,-3.0718,-3.0755,-3.0796,-3.0832,-3.0865,-3.091,-3.0969,-3.0984,-3.1041,-3.1087,-3.1158,-3.1187,-3.1232,-3.1226,-3.1239,-3.1243,-3.1245,-3.1247,-3.1167,-3.1241,-3.1241,-3.1241,-3.1241,-3.1241,0,-3.063,-3.0665,-3.0713,-3.0775,-3.0817,-3.0826,-3.0875,-3.0909,-3.096,-3.1003,-3.1048,-3.1111,-3.1163,-3.1203,-3.1256,-3.1285,-3.1289,-3.1297,-3.1294,-3.1301,-3.1249,-3.1235,-3.1293,-3.1293,-3.1293,-3.1293,-3.1293,-3.1293,-3.066,-3.072,-3.0744,-3.0824,-3.0859,-3.0917,-3.0944,-3.0983,-3.1019,-3.109,-3.1135,-3.1163,-3.1206,-3.1264,-3.1313,-3.1323,-3.1342,-3.1349,-3.136,-3.131,-3.1304,-3.1298,-3.1286,-3.1353,-3.1353,-3.1408,-3.1409,-3.1409]},{"header":{"parameterUnit":"m.s-1","parameterCategory":1,"la1":30.2991,"la2":30.254,"lo1":-89.0895,"lo2":-89.0444,"dy":0.0017,"dx":0.0017,"nx":28,"ny":28,"refTime":"2023-09-06T09:00:00:Z","depth":0,"parameterNumber":3,"parameterNumberName":"V-component_of_WINDS"},"data":[0,0,0,0,0,0,0,0,0,0,0,0,0,0,0,0,0,0,0,0,0,0,0,0,0,0,0,0,0,0,0,0,0,0,0,0,0,0,0,0,0,0,0,0,0,0,0,0,0,0,0,0,0,0,0,0,0,0,-0.3511,-0.3508,0,-0.326,-0.3257,-0.3254,-0.3177,-0.3178,-0.3179,-0.318,-0.2923,-0.2915,-0.2907,0,0,0,0,0,0,0,0,0,0,0,0,0,-0.3926,-0.3919,-0.3511,-0.3508,-0.3505,-0.326,-0.3257,-0.3254,-0.3176,-0.3178,-0.3179,-0.3181,-0.2926,-0.2916,-0.2907,0,0,0,0,0,0,0,0,0,0,0,0,0,-0.3717,-0.3916,-0.3512,-0.3437,-0.3428,-0.3261,-0.3257,-0.3253,-0.3176,-0.3178,-0.318,-0.3181,-0.2929,-0.2917,-0.2905,-0.2795,0,0,-0.2869,-0.2864,0,0,0,0,0,0,0,0,-0.3729,-0.3702,-0.3451,-0.3442,-0.3431,-0.3251,-0.3309,-0.3099,-0.3176,-0.3272,-0.318,-0.3182,-0.3031,-0.3011,-0.2959,-0.2783,-0.2772,-0.2868,-0.286,-0.2855,-0.2852,0,0,0,0,0,0,0,-0.3744,-0.3713,-0.3412,-0.3448,-0.3435,-0.3417,-0.3389,-0.3269,-0.3144,-0.3263,-0.3257,-0.3228,-0.3026,-0.2971,-0.2953,-0.2768,-0.2868,-0.2857,-0.285,-0.2845,-0.249,-0.2488,0,0,0,0,0,0,-0.3771,-0.3725,-0.342,-0.3404,-0.3588,-0.3408,-0.3377,-0.3307,-0.3145,-0.3122,-0.3227,-0.3226,-0.2991,-0.2967,-0.2944,-0.2803,-0.2855,-0.2844,-0.2837,-0.2492,-0.249,-0.2487,0,0,0,0,0,0,-0.378,-0.3744,-0.343,-0.3563,-0.3521,-0.3399,-0.3321,-0.3301,-0.3247,-0.3118,-0.3095,-0.3194,-0.2991,-0.296,-0.2833,-0.2793,-0.2839,-0.2828,-0.2495,-0.2491,-0.2488,-0.2522,0,0,0,0,0,0,-0.3792,-0.3748,-0.3704,-0.3562,-0.3515,-0.3322,-0.3319,-0.3295,-0.3226,-0.3222,-0.3081,-0.3059,-0.299,-0.2851,-0.2821,-0.2777,-0.2818,-0.2498,-0.2493,-0.2489,-0.2524,-0.252,-0.2517,0,0,0,0,0,-0.3807,-0.3723,-0.3702,-0.3666,-0.3457,-0.332,-0.3293,-0.3215,-0.3223,-0.3178,-0.3096,-0.3064,-0.2804,-0.2839,-0.2804,-0.2756,-0.25,-0.2495,-0.249,-0.2525,-0.2521,-0.2517,0,0,0,0,0,0,-0.3862,-0.3703,-0.3678,-0.3545,-0.3447,-0.3307,-0.3248,-0.3213,-0.311,-0.311,-0.3019,-0.2988,-0.2867,-0.28,-0.2841,-0.2642,-0.2651,-0.2638,-0.269,-0.2684,-0.2681,-0.2698,-0.2809,0,0,0,0,0,-0.3859,-0.3761,-0.3628,-0.3524,-0.3476,-0.3371,-0.3309,-0.3258,-0.3152,-0.311,-0.3018,-0.2917,-0.2813,-0.2745,-0.2642,-0.2516,-0.2484,-0.2466,-0.2463,-0.2461,-0.245,-0.2379,-0.2369,-0.247,-0.2471,-0.2471,0,0,-0.3851,-0.3752,-0.3696,-0.3533,-0.345,-0.3351,-0.3336,-0.3232,-0.3157,-0.3094,-0.2967,-0.2897,-0.2779,-0.2652,-0.2591,-0.2591,-0.2416,-0.2454,-0.2454,-0.2444,-0.2372,-0.2363,-0.2354,-0.2467,-0.2468,-0.2468,0,0,-0.3785,-0.3701,-0.3605,-0.3524,-0.34,-0.3331,-0.3309,-0.3175,-0.3126,-0.2998,-0.2949,-0.2861,-0.2682,-0.26,-0.2535,-0.2443,-0.2409,-0.2412,-0.2393,-0.2324,-0.2316,-0.2309,-0.2274,-0.2263,-0.2403,-0.2403,-0.2403,0,-0.379,-0.3638,-0.356,-0.3458,-0.3388,-0.3329,-0.3231,-0.3156,-0.3005,-0.2958,-0.2962,-0.2739,-0.2655,-0.2507,-0.2485,-0.2435,-0.2406,-0.2425,-0.2324,-0.2315,-0.2307,-0.2273,-0.2261,-0.2404,-0.2404,-0.2404,-0.2404,0,-0.3651,-0.3547,-0.3484,-0.334,-0.3264,-0.3165,-0.3072,-0.3005,-0.2963,-0.2894,-0.2766,-0.2664,-0.2539,-0.2502,-0.2459,-0.2348,-0.2353,-0.2342,-0.2347,-0.23,-0.2266,-0.2253,-0.2405,-0.2405,-0.2405,-0.2404,0,0,-0.3607,-0.3424,-0.3402,-0.3336,-0.3198,-0.3116,-0.3016,-0.2894,-0.2838,-0.2738,-0.265,-0.2504,-0.2493,-0.2419,-0.2368,-0.2308,-0.2241,-0.2304,-0.23,-0.2294,-0.2113,-0.2119,-0.2106,-0.222,-0.2217,-0.2215,-0.2122,0,-0.3521,-0.3337,-0.3266,-0.3117,-0.302,-0.2965,-0.2877,-0.2784,-0.2718,-0.2627,-0.2556,-0.2452,-0.2447,-0.2402,-0.2341,-0.2262,-0.2203,-0.2268,-0.2137,-0.2133,-0.2165,-0.2088,-0.2094,-0.2011,-0.2109,-0.2106,-0.2105,0,-0.3395,-0.3293,-0.3135,-0.3009,-0.2966,-0.2889,-0.2773,-0.2687,-0.258,-0.2537,-0.2458,-0.241,-0.2304,-0.2321,-0.2174,-0.222,-0.2163,-0.2117,-0.2112,-0.2093,-0.2113,-0.2065,-0.1983,-0.1969,-0.2084,-0.2085,-0.2087,0,-0.3376,-0.3201,-0.3083,-0.3029,-0.2881,-0.2828,-0.2763,-0.2659,-0.2591,-0.2491,-0.2446,-0.2336,-0.2274,-0.219,-0.2115,-0.2134,-0.1975,-0.1985,-0.1935,-0.1937,-0.19,-0.1902,-0.1804,-0.187,-0.187,-0.187,-0.187,0,-0.3286,-0.319,-0.3073,-0.3,-0.2892,-0.2813,-0.2709,-0.2641,-0.255,-0.2464,-0.2411,-0.2331,-0.2238,-0.2147,-0.2089,-0.1975,-0.1949,-0.1911,-0.1896,-0.1913,-0.1918,-0.1872,-0.1874,-0.1867,-0.1867,-0.1868,-0.1869,0,-0.3244,-0.3162,-0.303,-0.2901,-0.2867,-0.2793,-0.2683,-0.2611,-0.2546,-0.2438,-0.2408,-0.2305,-0.2196,-0.2114,-0.1972,-0.1933,-0.1811,-0.1797,-0.1847,-0.1838,-0.1792,-0.1797,-0.1658,-0.1635,-0.1719,-0.1719,-0.1718,0,-0.319,-0.3115,-0.2979,-0.2918,-0.2854,-0.2756,-0.2687,-0.2608,-0.2539,-0.2414,-0.2357,-0.2245,-0.2149,-0.1978,-0.1891,-0.1783,-0.1763,-0.1723,-0.1746,-0.1767,-0.176,-0.1764,-0.1756,-0.1718,-0.1717,-0.1717,-0.1717,0,-0.3101,-0.3065,-0.2967,-0.2856,-0.2776,-0.2685,-0.2592,-0.2546,-0.2451,-0.2376,-0.2264,-0.219,-0.2047,-0.1935,-0.1819,-0.1754,-0.1719,-0.1711,-0.1693,-0.1708,-0.1739,-0.172,-0.1835,-0.1713,-0.1713,-0.1714,-0.1714,-0.1714,-0.3049,-0.2981,-0.2875,-0.2768,-0.2692,-0.2607,-0.2533,-0.246,-0.2365,-0.2241,-0.2202,-0.2085,-0.1984,-0.1824,-0.1759,-0.1668,-0.1667,-0.1642,-0.1635,-0.1629,-0.163,-0.1758,-0.1647,-0.1647,-0.1647,-0.1647,-0.1647,0,-0.2956,-0.2886,-0.279,-0.2663,-0.258,-0.2557,-0.2454,-0.2386,-0.2285,-0.2193,-0.2101,-0.1973,-0.1866,-0.1773,-0.1662,-0.1607,-0.1588,-0.158,-0.1581,-0.1567,-0.1637,-0.1662,-0.1597,-0.1597,-0.1597,-0.1597,-0.1597,-0.1597,-0.2897,-0.278,-0.2732,-0.2576,-0.2507,-0.2393,-0.2336,-0.2259,-0.2185,-0.2045,-0.1955,-0.1896,-0.1803,-0.1686,-0.1587,-0.1563,-0.1523,-0.1518,-0.149,-0.1556,-0.1562,-0.1567,-0.159,-0.1511,-0.1511,-0.1426,-0.1426,-0.1425]}]]